CZ-2D DEB, 35271

Orbit data source: Space-Track

CZ-2D DEB, 35271 is space debris in SSO originally from a launch on Tue, 05 Jul 2005 UTC launched from the Jiuquan Satellite Launch Center, China (JSC). Debris objects in space refer to the collection of defunct objects orbiting the Earth. Examples of debris include non-operational satellites, rocket bodies, and fragments generated from explosions, collisions, or faulty payload assembly.

Loading next visibility...
Identifier
35271, 2005-024K
Orbit
SSO
Country
Flag of CNCN / PRC
Related business
Manufacturer
Unknown
Mission
Spacecraft
Bus & Motor
Unknown
Mass
Unknown
Launch date (UTC)
2005-07-05 (20 years ago)
Launch vehicle
Unknown
Launch site
Jiuquan Satellite Launch Center, China (JSC)
Object type
Payload
Rocket body
Debris
Shape & HBR
Unknown shape, 0.1 m
Radar Cross Section
Small (<0.1 m²)

Expand to show TLE details & history
Last TLE update: 15 hours ago

TLE from 15 hours ago
0 CZ-2D DEB
1 35271U 05024K   25290.88425934  .00048362  00000-0  69192-3 0  9993
2 35271  97.2034 316.7683 0004926 355.3969   4.7240 15.56059823 66698
Epoch: 2025-10-17T21:13Z
TLE epoch observation values (Epoch: 2025-10-17T21:13:20.006Z)
Latitude
-0.00006°
Longitude
-28.18828°
Altitude
398.891 km
Speed
7.673 km/s
True Right ascension
21h 07m 04s
True Declination
0° 00' 00"
Sunlit
Object was in full shadow at epoch
Visualization orbit readout
Latitude
Unknown
Longitude
Unknown
Altitude
Unknown
Speed
Unknown
Apparent Right ascension
Unknown
Apparent Declination
Unknown
Sunlit
N/A
Visualization observer readout
Local Sidereal Time
07:15:06
Azimuth
Unknown
Elevation
Unknown
Doppler factor
Unknown
Orbital elements
Apogee altitude
399.32 km
Perigee altitude
392.646 km
Semi-major axis
6,774.12 km
Eccentricity
0.00049
Inclination
97.2034°
RAAN
316.7683°
Arg. of periapsis
355.3969°
True anomaly
4.72865°
Mean anomaly
4.724°
Eccentric anomaly
4.72633°
Mean motion
3.89282 °/min
Orbital period
92.48 mins
BSTAR
0.00069192
Loading maneuver chart data...
Computing Atmospheric mass density...
Loading historical data...
Loading historical data...
Loading historical data...
Loading historical data...
Loading historical data...
Loading historical data...
Loading historical data...

Documentation

Showing up to 5 results
|